EN

Hourly Weather Paluki

Today, 9 March, Tuesday

Time Temperature Precipitation Wind Pressure Humidity
00:00 -5°C° 0 mm 2 mps 754 mmHg 85%
01:00 -5°C° 0 mm 2 mps 754 mmHg 85%
02:00 -5°C° 0 mm 2 mps 754 mmHg 84%
03:00 -5°C° 0 mm 2 mps 754 mmHg 84%
04:00 -5°C° 0 mm 2 mps 754 mmHg 83%
05:00 -5°C° 0 mm 2 mps 754 mmHg 80%
06:00 -4°C° 0 mm 2 mps 754 mmHg 77%
07:00 -2°C° 0 mm 1 mps 754 mmHg 74%
08:00 -2°C° 0 mm 1 mps 754 mmHg 67%
09:00 -1°C° 0 mm 1 mps 755 mmHg 60%
10:00 -1°C° 0 mm 1 mps 755 mmHg 54%
11:00 0°C° 0 mm 1 mps 755 mmHg 50%
12:00 +1°C° 0 mm 1 mps 755 mmHg 47%
13:00 +1°C° 0 mm 1 mps 755 mmHg 44%
14:00 0°C° 0 mm 0 mps 754 mmHg 43%
15:00 0°C° 0 mm 0 mps 754 mmHg 43%
16:00 0°C° 0 mm 0 mps 754 mmHg 43%
17:00 0°C° 0 mm 1 mps 754 mmHg 47%
18:00 -1°C° 0 mm 1 mps 754 mmHg 52%
19:00 -2°C° 0 mm 1 mps 754 mmHg 56%
20:00 -4°C° 0 mm 2 mps 754 mmHg 58%
21:00 -4°C° 0 mm 2 mps 754 mmHg 60%
22:00 -4°C° 0 mm 2 mps 754 mmHg 62%
23:00 -4°C° 0 mm 2 mps 754 mmHg 64%

Tomorrow, 10 March, Wednesday

Time Temperature Precipitation Wind Pressure Humidity
00:00 -4°C° 0 mm 2 mps 754 mmHg 66%
01:00 -4°C° 0 mm 2 mps 754 mmHg 69%
02:00 -2°C° 0 mm 1 mps 754 mmHg 70%
03:00 -3°C° 0 mm 1 mps 754 mmHg 70%
04:00 -3°C° 0 mm 1 mps 754 mmHg 71%
05:00 -3°C° 0 mm 1 mps 754 mmHg 71%
06:00 -2°C° 0 mm 1 mps 754 mmHg 71%
07:00 -2°C° 0 mm 1 mps 754 mmHg 70%
08:00 -1°C° 0 mm 1 mps 754 mmHg 64%
09:00 0°C° 0 mm 1 mps 755 mmHg 57%
10:00 +1°C° 0 mm 1 mps 755 mmHg 51%
11:00 +1°C° 0 mm 1 mps 755 mmHg 48%
12:00 +2°C° 0 mm 1 mps 755 mmHg 45%
13:00 +2°C° 0 mm 0 mps 755 mmHg 43%
14:00 +1°C° 0 mm 0 mps 754 mmHg 43%
15:00 +1°C° 0 mm 0 mps 754 mmHg 44%
16:00 +1°C° 0 mm 0 mps 754 mmHg 44%
17:00 +1°C° 0 mm 1 mps 754 mmHg 49%
18:00 0°C° 0 mm 1 mps 754 mmHg 53%
19:00 -3°C° 0 mm 2 mps 755 mmHg 57%
20:00 -3°C° 0 mm 2 mps 755 mmHg 58%
21:00 -3°C° 0 mm 2 mps 755 mmHg 59%
22:00 -3°C° 0 mm 2 mps 755 mmHg 60%
23:00 -4°C° 0 mm 2 mps 755 mmHg 60%

Day after tomorrow, 11 March, Thursday

Time Temperature Precipitation Wind Pressure Humidity
00:00 -4°C° 0 mm 2 mps 755 mmHg 61%
01:00 -4°C° 0 mm 2 mps 755 mmHg 61%
02:00 -4°C° 0 mm 2 mps 755 mmHg 62%
03:00 -4°C° 0 mm 2 mps 754 mmHg 63%
04:00 -4°C° 0 mm 2 mps 754 mmHg 64%
05:00 -4°C° 0 mm 2 mps 754 mmHg 63%
06:00 -5°C° 0 mm 3 mps 754 mmHg 63%
07:00 -5°C° 0 mm 3 mps 754 mmHg 63%
08:00 -3°C° 0 mm 4 mps 753 mmHg 57%
09:00 -2°C° 0 mm 5 mps 753 mmHg 51%
10:00 -2°C° 0 mm 6 mps 753 mmHg 46%
11:00 -1°C° 0 mm 6 mps 752 mmHg 44%
12:00 -1°C° 0 mm 6 mps 751 mmHg 43%
13:00 0°C° 0 mm 7 mps 751 mmHg 42%
14:00 0°C° 0 mm 7 mps 750 mmHg 44%
15:00 -1°C° 0 mm 7 mps 749 mmHg 46%
16:00 -1°C° 0 mm 6 mps 748 mmHg 49%
17:00 -1°C° 0.1 mm 7 mps 747 mmHg 51%
18:00 -1°C° 0.1 mm 7 mps 747 mmHg 54%
19:00 -2°C° 0.1 mm 7 mps 746 mmHg 57%
20:00 -2°C° 0.6 mm 8 mps 745 mmHg 70%
21:00 -4°C° 0.6 mm 8 mps 745 mmHg 83%
22:00 -4°C° 0.6 mm 8 mps 744 mmHg 96%
23:00 -4°C° 0.4 mm 8 mps 743 mmHg 96%

12 March, Friday

Time Temperature Precipitation Wind Pressure Humidity
00:00 -2°C° 0.4 mm 8 mps 743 mmHg 96%
01:00 -2°C° 0.4 mm 7 mps 742 mmHg 95%
02:00 -1°C° 1.1 mm 6 mps 741 mmHg 96%
03:00 0°C° 1.1 mm 5 mps 741 mmHg 96%
04:00 +1°C° 1.1 mm 5 mps 741 mmHg 97%
05:00 +1°C° 0.2 mm 5 mps 741 mmHg 96%
06:00 +1°C° 0.2 mm 6 mps 741 mmHg 96%
07:00 +2°C° 0.2 mm 6 mps 741 mmHg 95%
08:00 +2°C° 0.3 mm 7 mps 741 mmHg 91%
09:00 +3°C° 0.3 mm 7 mps 742 mmHg 86%
10:00 +2°C° 0.3 mm 8 mps 742 mmHg 81%
11:00 +4°C° 0.1 mm 8 mps 743 mmHg 79%
12:00 +4°C° 0.1 mm 8 mps 744 mmHg 77%
13:00 +4°C° 0.1 mm 8 mps 744 mmHg 75%
14:00 +4°C° 0.1 mm 7 mps 745 mmHg 75%
15:00 +4°C° 0.1 mm 6 mps 745 mmHg 75%
16:00 +3°C° 0.1 mm 5 mps 745 mmHg 75%
17:00 +3°C° 0 mm 4 mps 746 mmHg 78%
18:00 +1°C° 0 mm 4 mps 746 mmHg 82%
19:00 +1°C° 0 mm 3 mps 746 mmHg 85%
20:00 0°C° 0 mm 3 mps 746 mmHg 85%
21:00 0°C° 0 mm 3 mps 746 mmHg 86%
22:00 0°C° 0 mm 3 mps 746 mmHg 86%
23:00 -1°C° 0 mm 4 mps 746 mmHg 86%

13 March, Saturday

Time Temperature Precipitation Wind Pressure Humidity
00:00 -1°C° 0 mm 4 mps 746 mmHg 86%
01:00 -1°C° 0 mm 4 mps 745 mmHg 86%
02:00 -1°C° 0 mm 4 mps 745 mmHg 86%
03:00 -1°C° 0 mm 5 mps 745 mmHg 86%
04:00 -1°C° 0 mm 5 mps 744 mmHg 86%
05:00 -1°C° 0 mm 5 mps 744 mmHg 86%
06:00 0°C° 0 mm 5 mps 744 mmHg 86%
07:00 0°C° 0 mm 5 mps 744 mmHg 87%
08:00 0°C° 0.2 mm 5 mps 744 mmHg 89%
09:00 +1°C° 0.2 mm 5 mps 745 mmHg 91%
10:00 +1°C° 0.2 mm 5 mps 745 mmHg 93%
11:00 +2°C° 0.1 mm 5 mps 745 mmHg 90%
12:00 +2°C° 0.1 mm 5 mps 745 mmHg 86%
13:00 +3°C° 0.1 mm 5 mps 745 mmHg 82%
14:00 +3°C° 0.1 mm 5 mps 745 mmHg 81%
15:00 +3°C° 0.1 mm 5 mps 745 mmHg 79%
16:00 +5°C° 0.1 mm 5 mps 745 mmHg 77%
17:00 +3°C° 0 mm 4 mps 744 mmHg 81%
18:00 +1°C° 0 mm 4 mps 744 mmHg 85%
19:00 +1°C° 0 mm 3 mps 744 mmHg 89%
20:00 0°C° 0 mm 4 mps 744 mmHg 87%
21:00 0°C° 0 mm 4 mps 744 mmHg 86%
22:00 0°C° 0 mm 5 mps 743 mmHg 84%
23:00 +1°C° 0 mm 5 mps 743 mmHg 85%

14 March, Sunday

Time Temperature Precipitation Wind Pressure Humidity
00:00 +1°C° 0 mm 5 mps 742 mmHg 85%
01:00 +1°C° 0 mm 6 mps 741 mmHg 85%
02:00 +2°C° 0 mm 6 mps 741 mmHg 87%
03:00 +2°C° 0 mm 6 mps 740 mmHg 88%
04:00 +2°C° 0 mm 7 mps 739 mmHg 90%
05:00 +3°C° 0 mm 7 mps 739 mmHg 89%
06:00 +3°C° 0 mm 7 mps 738 mmHg 87%
07:00 +3°C° 0 mm 7 mps 738 mmHg 86%
08:00 +3°C° 0.9 mm 7 mps 737 mmHg 88%
09:00 +3°C° 0.9 mm 7 mps 737 mmHg 90%
10:00 +3°C° 0.9 mm 7 mps 737 mmHg 93%
11:00 +3°C° 0.9 mm 6 mps 737 mmHg 92%
12:00 +3°C° 0.9 mm 6 mps 737 mmHg 91%
13:00 +3°C° 0.9 mm 5 mps 737 mmHg 91%
14:00 +3°C° 0.1 mm 5 mps 737 mmHg 84%
15:00 +5°C° 0.1 mm 5 mps 738 mmHg 78%
16:00 +5°C° 0.1 mm 4 mps 738 mmHg 71%
17:00 +4°C° 0 mm 4 mps 738 mmHg 74%
18:00 +3°C° 0 mm 4 mps 739 mmHg 76%
19:00 +1°C° 0 mm 4 mps 739 mmHg 79%
20:00 +1°C° 0 mm 4 mps 739 mmHg 81%
21:00 0°C° 0 mm 4 mps 739 mmHg 82%
22:00 0°C° 0 mm 4 mps 739 mmHg 84%
23:00 -1°C° 0 mm 5 mps 739 mmHg 85%
Show more

We Need Your Consent

Meteoprog and our Service Providers may store and access personal data such as cookies, device identifiers or other similar technologies on your device and process such data to personalise content and ads, as well as provide social media features and to analyse the traffic.

  • Store and/or access information on your device

    Cookies, device identifiers or other information can be stored or accessed on your device for the purposes indicated above.

  • Personalised ads and content, ad and content measurement, audience insights, and products development

    Ads and content can be personalised based on a profile. More data can be added to better personalise ads and content. Ad and content performance can be measured. Insights about the audience who saw the ads and content can be derived. Such data can be used to develop or improve user’s experience, systems and software.

By clicking ‘I Agree’ you will allow the use of indicated cookies, device identifiers, web beacons or other similar technologies. Your settings can be changed in the browser on your device.

For certain purposes, legitimate interests may be relied on, rather than consent. You can read more about this in our Privacy and Cookie Policy.